Location: Trois-Rivi�res
(46.3500°N, 72.5500°W)
Time: 13:47:21
(UTC-05:00)

Envisat - Pass Details

Date: 14 October 2017
Orbit: 764 x 766 km, 98.2° (Epoch: 16 December)

Event Time Altitude Azimuth Distance (km) Brightness Sun altitude
Exits shadow 18:39:50 - 82° (E) 2,464 4.9 -6.8°
Reaches altitude 10° 18:40:51 10° 72° (ENE) 2,310 4.8 -7.0°
Maximum altitude 18:42:23 11° 54° (NE) 2,218 4.9 -7.2°
Drops below altitude 10° 18:43:55 10° 36° (NE) 2,314 5.1 -7.5°
Sets 18:47:58 0° 4° (N) 3,247 6.2 -8.2°
